Location: LDNL
(36.4545°S, 141.6685°E)
Time: 22:35:19
(UTC+11:00)

Courier 1B Rocket - Pass Details

Date: 07 February 2023
Orbit: 920 x 1202 km, 28.2° (Epoch: 26 March)

Event Time Altitude Azimuth Distance (km) Brightness Sun altitude
Rises 05:54:52 0° 290° (WNW) 4,000 - -11.9°
Reaches altitude 10° 05:57:45 10° 296° (WNW) 3,072 - -11.4°
Exits shadow 05:58:40 14° 298° (WNW) 2,788 6.7 -11.2°
Maximum altitude 06:04:59 45° 5° (N) 1,573 5.9 -10.1°
Drops below altitude 10° 06:12:23 10° 75° (ENE) 3,140 8.4 -8.8°
Sets 06:15:22 0° 80° (E) 4,096 9.2 -8.3°
